Weather History for Madrid / Barajas, Spain

Change the Weather History Date:

Wednesday, May 15, 2013

  Actual Average Record
Temperature  
Mean Temperature 50 °F -  
Max Temperature 55 °F 78 °F - ()
Min Temperature 46 °F 52 °F - ()
Degree Days  
Heating Degree Days 14    
Moisture  
Dew Point 47 °F    
Average Humidity 79    
Maximum Humidity 100    
Minimum Humidity 52    
Precipitation  
Precipitation 0.02 in 0.04 in - ()
Sea Level Pressure  
Sea Level Pressure 29.62 in    
Wind  
Wind Speed 5 mph ()    
Max Wind Speed 13 mph    
Max Gust Speed 20 mph    
Visibility 7.0 miles    
Events Rain    
T = Trace of Precipitation, MM = Missing Value Source: Averaged Metar Reports

Daily Weather History Graph

Daily Weather History Graph

Search for Another Location

Airport:

Trip Planner

Search our weather history database for the weather conditions in past years. The results will help you decide how hot, cold, wet, or windy it might be!

Date:

Astronomy

May. 15, 2013 Rise Set
Actual Time 6:57 AM CEST 9:23 PM CEST
Civil Twilight 6:26 AM CEST 9:54 PM CEST
Nautical Twilight 5:48 AM CEST 10:33 PM CEST
Astronomical Twilight 5:05 AM CEST 11:16 PM CEST
Moon 11:19 AM CEST (5/15) 1:01 AM CEST (5/15)
Length of Visible Light 15h 28m
Length of Day
14h 26m
Waxing Crescent, 24% of the Moon is Illuminated
May 15
Waxing Crescent
May 18
First Quarter
May 25
Full
May 31
Last Quarter
Jun 8
New

Hourly Weather History & Observations

Time (CEST) Temp. Windchill Dew Point Humidity Pressure Visibility Wind Dir Wind Speed Gust Speed Precip Events Conditions
12:00 AM 57.2 °F - 51.8 °F 82% 29.74 in 6.2 mi SW 5.8 mph - N/A Rain Light Rain
12:30 AM 57.2 °F - 51.8 °F 82% 29.71 in 6.2 mi SSW 4.6 mph - N/A   Mostly Cloudy
1:00 AM 57.2 °F - 53.6 °F 88% 29.71 in 6.2 mi South 3.5 mph - N/A   Scattered Clouds
1:30 AM 57.2 °F - 51.8 °F 82% 29.71 in 6.2 mi South 4.6 mph - N/A   Scattered Clouds
2:00 AM 54 °F - 50 °F 82% 29.69 in 19 mi South 3.5 mph - -   Partly Cloudy
2:00 AM 55.4 °F - 51.8 °F 88% 29.68 in 6.2 mi South 3.5 mph - N/A   Scattered Clouds
2:30 AM 55.4 °F - 53.6 °F 94% 29.68 in 6.2 mi South 2.3 mph - N/A   Scattered Clouds
3:00 AM 53.6 °F - 53.6 °F 100% 29.65 in 6.2 mi ENE 2.3 mph - N/A   Scattered Clouds
3:30 AM 53.6 °F - 53.6 °F 100% 29.65 in 6.2 mi ESE 3.5 mph - N/A   Scattered Clouds
4:00 AM 53.6 °F - 53.6 °F 100% 29.65 in 6.2 mi Variable 1.2 mph - N/A   Scattered Clouds
4:30 AM 55.4 °F - 55.4 °F 100% 29.62 in 6.2 mi SSE 4.6 mph - N/A   Mostly Cloudy
5:00 AM 55.4 °F - 53.6 °F 94% 29.62 in 6.2 mi SE 5.8 mph - N/A   Mostly Cloudy
5:30 AM 55.4 °F - 53.6 °F 94% 29.59 in 6.2 mi South 6.9 mph - N/A   Scattered Clouds
6:00 AM 55.4 °F - 53.6 °F 94% 29.59 in 6.2 mi South 5.8 mph - N/A   Mostly Cloudy
6:30 AM 55.4 °F - 53.6 °F 94% 29.59 in 6.2 mi South 5.8 mph - N/A   Scattered Clouds
7:00 AM 55.4 °F - 53.6 °F 94% 29.59 in 6.2 mi SSW 3.5 mph - N/A   Mostly Cloudy
7:30 AM 55.4 °F - 53.6 °F 94% 29.59 in 6.2 mi South 5.8 mph 19.6 mph N/A   Scattered Clouds
8:00 AM 54 °F - 51 °F 84% 29.57 in 10 mi SSW 5.8 mph - -   Partly Cloudy
8:00 AM 55.4 °F - 53.6 °F 94% 29.59 in 6.2 mi South 4.6 mph - N/A   Scattered Clouds
8:30 AM 55.4 °F - 48.2 °F 77% 29.56 in 6.2 mi WSW 8.1 mph - N/A   Scattered Clouds
9:00 AM 57.2 °F - 46.4 °F 67% 29.59 in 6.2 mi WSW 6.9 mph - N/A   Scattered Clouds
9:30 AM 57.2 °F - 44.6 °F 63% 29.59 in 6.2 mi WNW 5.8 mph - N/A   Mostly Cloudy
10:00 AM 57.2 °F - 46.4 °F 67% 29.59 in 6.2 mi West 4.6 mph - N/A   Mostly Cloudy
10:30 AM 55.4 °F - 44.6 °F 67% 29.59 in 6.2 mi West 11.5 mph - N/A   Scattered Clouds
11:00 AM 53.6 °F - 46.4 °F 77% 29.59 in 6.2 mi West 10.4 mph - N/A Rain Rain
11:30 AM 53.6 °F - 50.0 °F 88% 29.59 in 6.2 mi North 6.9 mph - N/A   Mostly Cloudy
12:00 PM 53.6 °F - 48.2 °F 82% 29.59 in 6.2 mi Variable 2.3 mph - N/A   Mostly Cloudy
12:30 PM 55.4 °F - 46.4 °F 72% 29.59 in 6.2 mi SE 4.6 mph - N/A   Mostly Cloudy
1:00 PM 53.6 °F - 48.2 °F 82% 29.59 in 6.2 mi ENE 5.8 mph - N/A Rain Light Rain
1:30 PM 50.0 °F - 42.8 °F 76% 29.62 in 6.2 mi NNE 12.7 mph - N/A Rain Light Rain
2:00 PM 49 °F - 42 °F 69% 29.63 in 19 mi North 11.5 mph - -   Mostly Cloudy
2:00 PM 50.0 °F - 42.8 °F 76% 29.62 in 6.2 mi North 11.5 mph - N/A   Mostly Cloudy
2:18 PM 50.0 °F - 42.8 °F 76% 29.62 in 6.2 mi NNE 11.5 mph - N/A Rain Rain Showers
2:30 PM 50.0 °F - 44.6 °F 82% 29.62 in 6.2 mi NNE 10.4 mph - N/A Rain Light Rain
3:00 PM 50.0 °F - 42.8 °F 76% 29.62 in 6.2 mi NE 9.2 mph - N/A   Light Drizzle
3:30 PM 50.0 °F - 44.6 °F 82% 29.62 in 6.2 mi ENE 10.4 mph - N/A Rain Light Rain
4:00 PM 50.0 °F - 41.0 °F 71% 29.62 in 6.2 mi ENE 12.7 mph - N/A Rain Light Rain
4:30 PM 53.6 °F - 42.8 °F 67% 29.62 in 6.2 mi ENE 10.4 mph - N/A   Scattered Clouds
5:00 PM 53.6 °F - 42.8 °F 67% 29.62 in 6.2 mi NE 12.7 mph - N/A   Scattered Clouds
5:30 PM 53.6 °F - 42.8 °F 67% 29.62 in 6.2 mi ENE 9.2 mph - N/A   Scattered Clouds
6:00 PM 53.6 °F - 41.0 °F 62% 29.62 in 6.2 mi ENE 9.2 mph - N/A   Partly Cloudy
6:30 PM 55.4 °F - 42.8 °F 63% 29.62 in 6.2 mi NE 6.9 mph - N/A   Partly Cloudy
7:00 PM 53.6 °F - 42.8 °F 67% 29.62 in 6.2 mi ENE 5.8 mph - N/A   Partly Cloudy
8:00 PM 53 °F - 40 °F 52% 29.61 in 19 mi ENE 4.6 mph - -   Scattered Clouds
8:00 PM 53.6 °F - 42.8 °F 67% 29.59 in 6.2 mi ENE 5.8 mph - N/A   Partly Cloudy
8:30 PM 53.6 °F - 41.0 °F 62% 29.62 in 6.2 mi ENE 4.6 mph - N/A   Partly Cloudy
9:00 PM 53.6 °F - 41.0 °F 62% 29.62 in 6.2 mi Variable 2.3 mph - N/A   Partly Cloudy
9:30 PM 51.8 °F - 41.0 °F 67% 29.62 in 6.2 mi Variable 2.3 mph - N/A   Partly Cloudy
10:00 PM 50.0 °F - 41.0 °F 71% 29.62 in 6.2 mi ENE 2.3 mph - N/A   Partly Cloudy
10:30 PM 48.2 °F - 41.0 °F 76% 29.65 in 6.2 mi Calm Calm - N/A   Partly Cloudy
11:00 PM 46.4 °F 45.2 °F 41.0 °F 81% 29.65 in - East 3.5 mph - N/A   Clear
11:30 PM 46.4 °F - 39.2 °F 76% 29.65 in - Variable 1.2 mph - N/A   Clear